Hourly Data Report for October 31, 2014

All times are specified in Local Standard Time (LST). Add 1 hour to adjust for Daylight Saving Time where and when it is observed.

FREDERICTON
NEW BRUNSWICK

45°52'08.000" N
66°32'14.000" W
20.70 m
8101505
71700
YFC

Download Data

Hourly Data (October 2014)
Hourly Data Report for October 31, 2014
Temp Definition
°C
Dew Point Temp Definition
°C
Rel Hum Definition
%
Wind Dir Definition
10's deg

Wind Spd Definition
km/h
Visibility Definition
km
Stn Press Definition
kPa
Hmdx Definition


Wind Chill Definition


Weather Definition


TIME
00:00 Legend Double Dagger 4.4 2.3 86   0 16.1 101.15     LegendNANA
01:00 Legend Double Dagger 5.2 1.6 77 30 8 16.1 101.23     LegendNANA
02:00 Legend Double Dagger 4.6 1.9 83 32 4 16.1 101.25     LegendNANA
03:00 Legend Double Dagger 4.0 2.8 92 30 4 16.1 101.29     LegendNANA
04:00 Legend Double Dagger 3.9 3.0 94   0 16.1 101.28     LegendNANA
05:00 Legend Double Dagger 4.2 2.8 90 33 5 16.1 101.33     LegendNANA
06:00 Legend Double Dagger 4.4 1.7 83 33 8 16.1 101.37     LegendNANA
07:00 Legend Double Dagger 4.1 0.9 80 34 5 16.1 101.41     LegendNANA
08:00 Legend Double Dagger 4.2 0.6 77 LegendMM 4 16.1 101.52     LegendNANA
09:00 Legend Double Dagger 4.6 1.3 79   0 16.1 101.58     LegendNANA
10:00 Legend Double Dagger 5.4 -0.1 68 3 8 16.1 101.58     LegendNANA
11:00 Legend Double Dagger 6.1 0.9 69 6 8 16.1 101.59     LegendNANA
12:00 Legend Double Dagger 7.0 1.3 67 7 5 16.1 101.54     LegendNANA
13:00 Legend Double Dagger 8.0 1.8 65 4 9 16.1 101.49     LegendNANA
14:00 Legend Double Dagger 8.2 1.0 60 8 8 16.1 101.49     LegendNANA
15:00 Legend Double Dagger 8.1 0.0 57 4 5 16.1 101.55     LegendNANA
16:00 Legend Double Dagger 7.6 0.4 60 7 11 16.1 101.57     LegendNANA
17:00 Legend Double Dagger 7.3 1.3 65 6 13 16.1 101.59     LegendNANA
18:00 Legend Double Dagger 6.6 1.4 69 4 9 16.1 101.58     LegendNANA
19:00 Legend Double Dagger 6.5 2.0 73 6 9 16.1 101.67     Rain
20:00 Legend Double Dagger 6.3 1.4 71 4 11 16.1 101.70     LegendNANA
21:00 Legend Double Dagger 6.1 1.5 72 4 8 16.1 101.75     LegendNANA
22:00 Legend Double Dagger 5.9 1.7 74 2 11 16.1 101.72     LegendNANA
23:00 Legend Double Dagger 6.0 1.5 73 3 9 16.1 101.73     LegendNANA

Notes on Data Quality.

Legend

  • E = Estimated
  • M = Missing
  • NA = Not Available
  • ‡ = Partner data that is not subject to review by the National Climate Archives
Date modified: